Location: Alphen
(52.1351°N, 4.6549°E)
Time: 01:27:23
(UTC+00:00)

Meteor 1-21 Rocket - Pass Details

Date: 27 January 2021
Orbit: 834 x 906 km, 81.2° (Epoch: 27 February)

Event Time Altitude Azimuth Distance (km) Brightness Sun altitude
Exits shadow 04:17:59 68° 7° (N) 948 4.3 -29.1°
Maximum altitude 04:18:44 82° 77° (ENE) 897 4.2 -29.0°
Drops below altitude 10° 04:24:35 10° 165° (SSE) 2,558 6.8 -28.1°
Sets 04:27:03 0° 167° (SSE) 3,502 7.5 -27.7°
